Theta_e
361 362 364 362 363 363 364 364 365 365 363 359 359 359 359 360 359 358 361 361 361 361 361 360 360 359 358 357 359 358 359 359 359 358 359 358 361 359 357 358 359 358 356 357 357 357 357 357 356 354 353 354 355 356 356 355 353 352 353 355 355 354 353 355 353 354 353 354 355 354 354 354 353 353 354 354 354 353 353 353 353 353 354 353 353
361 363 362 362 363 363 364 363 363 363 360 358 360 357 356 356 357 358 358 358 358 360 359 359 358 358 360 359 358 359 359 358 358 357 359 359 361 361 357 357 357 359 358 357 357 357 357 355 356 356 356 356 354 355 355 355 355 355 353 353 355 355 353 353 354 354 354 354 354 354 354 354 354 354 354 354 354 354 354 353 353 353 354 354 354
363 364 365 364 363 364 364 364 362 361 359 360 360 358 358 357 358 356 356 356 356 358 357 357 358 358 358 357 358 359 359 360 358 358 356 358 360 361 361 357 357 358 359 359 357 356 357 356 355 355 356 356 356 354 352 355 357 356 354 352 352 353 355 354 354 354 355 354 355 355 354 354 354 354 354 354 355 355 354 354 354 354 354 354 354
365 365 364 363 362 362 363 363 361 359 359 359 358 359 358 358 359 358 357 357 357 356 356 355 356 357 358 357 358 358 358 358 357 355 357 358 360 361 361 360 357 356 358 359 359 357 357 357 355 354 354 355 356 357 354 354 356 356 355 355 354 353 353 354 355 353 355 355 354 355 355 355 355 354 355 355 355 355 355 355 355 355 355 355 354
365 364 364 363 362 361 360 360 360 360 359 358 358 359 358 358 360 359 357 357 355 355 355 353 353 354 357 357 358 356 358 358 359 359 357 358 358 358 360 361 362 357 356 357 359 358 358 358 357 357 357 357 357 356 355 356 354 353 352 354 356 355 353 352 354 355 355 355 355 355 355 355 355 355 355 355 355 355 355 355 355 355 355 355 355
364 363 363 362 361 360 358 357 355 356 359 359 358 358 357 358 357 358 357 357 352 354 352 353 353 354 355 355 356 356 356 356 356 357 358 357 358 360 359 359 361 363 363 357 357 359 358 358 358 357 355 354 354 354 355 355 355 354 354 354 355 355 354 353 353 354 355 355 355 354 355 355 355 355 355 355 355 356 355 355 356 355 355 355 355
365 363 362 362 360 358 359 355 355 357 359 359 357 354 356 357 359 357 356 353 353 353 352 352 351 351 353 354 354 356 356 355 356 358 358 360 359 359 359 359 362 361 362 362 358 358 358 358 356 354 352 353 355 354 353 352 354 355 354 355 355 355 354 354 354 354 354 355 355 356 356 354 354 355 356 356 356 355 356 356 356 356 355 355 355
365 364 362 360 360 358 360 357 356 358 357 356 356 357 359 358 359 355 351 350 351 349 351 349 349 350 351 352 352 353 354 355 355 356 357 358 358 359 359 361 362 363 359 361 361 362 356 358 356 354 353 353 353 353 352 353 353 353 356 356 356 354 354 354 355 355 354 355 355 356 357 356 355 355 354 355 356 356 356 356 356 356 356 356 356
364 363 361 360 359 357 359 358 357 357 356 357 356 359 358 353 354 355 353 350 348 348 348 349 348 350 351 351 351 352 352 353 354 354 355 355 355 356 358 359 360 356 362 360 360 363 358 356 357 356 355 354 354 355 354 353 352 353 356 357 356 356 355 355 355 354 354 355 355 356 356 357 356 356 355 354 355 356 356 356 357 357 357 356 356
361 361 360 359 359 358 359 360 358 357 356 357 356 357 355 353 351 352 352 351 349 347 347 348 348 348 348 347 350 349 350 351 352 354 354 354 356 356 356 358 358 358 357 358 358 359 361 358 355 355 354 355 355 354 354 354 355 356 355 354 355 356 356 356 355 355 354 354 355 356 356 356 356 356 355 356 355 355 356 357 357 357 357 357 356
360 360 360 358 358 359 358 358 357 356 356 355 355 355 353 352 350 349 351 352 350 350 348 348 348 346 346 347 350 350 351 350 353 350 352 352 355 355 358 358 358 357 358 358 358 359 359 359 358 360 358 355 355 356 355 354 355 356 356 357 356 357 356 356 357 356 355 353 353 355 356 356 357 357 356 356 356 355 355 356 356 357 357 357 357
363 362 359 359 358 357 357 356 357 357 355 353 351 350 351 351 349 349 349 349 350 349 349 348 346 346 346 348 350 351 350 350 349 349 350 350 353 356 353 356 357 356 356 357 357 356 357 358 357 357 358 356 355 355 355 355 355 355 355 356 357 356 357 355 356 355 354 354 355 355 355 356 354 356 357 357 356 356 355 355 356 357 357 357 357
363 362 360 357 358 356 355 356 357 356 354 352 354 352 350 350 350 351 348 347 346 348 348 348 344 342 346 347 346 349 349 349 346 346 346 347 349 350 352 352 353 352 353 354 354 353 353 356 356 356 356 357 357 354 354 354 355 355 356 356 357 357 358 356 355 353 353 354 354 354 354 352 352 354 353 356 357 356 355 355 355 357 357 357 357
363 362 358 357 356 355 355 356 355 354 355 354 352 350 349 350 350 348 349 346 344 346 347 346 340 336 336 338 342 344 348 347 342 342 344 346 347 347 348 345 345 346 347 350 349 349 349 352 355 354 354 355 356 358 357 356 355 354 355 355 356 357 356 355 352 351 352 352 350 351 349 350 349 351 353 354 355 356 355 355 355 357 357 357 357
362 359 357 356 356 356 355 356 355 355 353 353 352 351 350 349 348 346 345 345 344 347 347 347 338 340 339 337 335 334 340 343 342 342 342 343 342 341 342 340 341 344 347 346 345 347 347 349 351 352 352 353 353 353 356 353 355 353 354 354 355 355 355 354 351 350 351 352 352 353 351 350 348 349 351 353 355 355 356 356 356 356 356 357 357
361 358 358 357 357 357 357 355 356 355 352 349 350 352 350 349 348 347 345 342 343 342 347 347 344 340 333 333 334 333 329 334 336 341 341 341 340 339 340 339 341 344 343 341 341 344 346 348 348 350 351 351 351 351 351 353 351 352 352 353 352 352 353 354 354 353 353 353 352 351 350 349 349 349 351 354 355 356 356 356 356 356 356 357 357
361 361 361 360 359 358 357 356 353 355 353 351 350 350 350 349 349 347 345 341 339 340 343 346 344 346 339 334 333 330 329 331 333 337 338 338 339 339 340 338 338 341 340 341 344 344 345 344 347 348 349 350 350 350 351 351 352 352 352 350 351 351 352 352 354 355 354 355 355 353 351 351 351 351 352 354 355 355 356 356 356 356 356 356 357
362 362 360 359 359 358 357 353 351 352 351 349 351 351 350 350 349 348 345 346 342 339 339 344 343 344 344 342 340 331 329 333 333 329 341 341 344 340 340 335 337 339 340 339 339 342 342 341 343 344 344 346 346 348 348 349 349 351 351 351 349 349 350 350 352 353 353 354 354 355 354 353 353 354 352 352 354 355 356 356 355 356 356 356 357
360 361 360 360 359 359 356 351 350 350 352 352 349 349 349 349 350 348 346 347 345 340 339 339 342 342 342 342 342 341 340 335 328 332 329 336 338 335 334 334 336 337 334 335 335 335 339 340 339 341 342 342 343 344 343 343 343 345 346 345 345 345 347 348 350 352 352 351 352 354 354 354 354 354 353 353 355 355 355 356 356 356 356 356 357
360 361 360 356 354 354 355 351 351 351 352 351 349 349 350 350 350 349 348 346 344 340 339 339 338 338 342 340 340 341 339 339 339 333 329 328 330 335 337 333 333 329 330 332 333 334 338 339 337 337 340 339 339 339 340 341 341 342 341 339 340 339 340 340 341 344 346 350 353 352 353 353 353 354 354 354 355 355 355 355 356 356 356 357 357
361 357 355 353 351 352 354 352 351 351 352 351 350 351 350 348 348 347 346 346 345 344 341 340 339 338 338 338 338 337 337 337 336 336 332 327 328 329 332 336 334 329 331 329 332 335 335 335 338 338 339 340 340 339 338 338 338 340 338 338 339 339 338 338 338 340 341 342 344 347 351 353 354 354 353 354 355 355 355 355 356 356 356 357 358
355 354 353 352 351 353 351 351 351 351 351 350 350 351 350 349 348 348 348 345 345 345 342 342 342 342 340 338 336 336 336 335 334 333 332 332 327 328 331 329 327 329 332 327 333 331 332 335 335 332 334 336 337 337 337 337 337 337 337 337 337 337 336 336 336 338 338 338 339 341 344 346 351 353 354 354 353 354 355 355 355 356 356 357 357
348 350 350 351 353 354 349 351 351 351 351 350 349 349 347 348 348 349 348 347 344 344 342 342 342 341 340 339 336 336 334 334 333 333 332 330 329 329 330 330 327 328 333 335 336 332 332 335 334 333 337 336 338 337 337 338 336 336 336 336 336 336 334 334 334 335 335 335 337 339 340 341 344 349 352 354 354 355 355 355 355 355 356 356 356
350 348 348 348 352 352 352 352 351 350 349 350 349 348 348 349 348 347 347 348 348 345 343 341 341 341 340 340 340 338 337 336 335 335 332 331 329 328 329 332 331 331 333 336 337 334 332 333 333 333 334 335 338 338 338 339 337 335 336 336 335 335 334 333 334 333 333 334 334 335 337 338 339 341 345 349 352 354 353 354 355 356 356 356 356
347 346 345 348 350 352 352 351 349 350 349 349 348 349 349 348 348 347 346 346 346 345 343 342 343 341 340 341 341 339 338 338 337 336 336 335 332 327 329 331 327 327 334 332 329 331 330 333 334 334 334 337 337 338 338 337 338 336 336 336 335 334 333 333 332 332 332 333 333 334 336 337 337 338 339 342 345 349 352 353 354 354 356 356 356
346 346 346 347 348 349 350 349 350 350 350 349 348 349 350 348 347 346 345 346 346 345 345 343 344 344 344 341 340 340 340 340 339 337 335 334 332 329 327 329 331 327 331 332 334 325 329 334 332 335 335 336 337 338 339 338 338 335 335 337 337 335 333 333 332 332 332 332 333 334 335 336 336 337 337 338 341 344 348 351 353 354 354 354 355
347 349 350 350 349 349 349 348 349 349 349 348 348 349 350 349 347 346 346 345 346 345 344 343 342 342 344 342 340 341 340 340 339 338 338 336 333 332 330 324 324 325 325 329 330 329 323 328 331 332 336 338 338 339 339 339 336 334 336 338 337 335 334 334 332 331 331 332 333 333 334 334 334 335 336 337 338 340 342 347 349 352 353 353 354
351 351 350 349 349 347 348 347 348 347 348 348 348 347 349 347 347 346 345 346 345 345 344 344 342 342 341 342 342 339 341 341 341 341 340 338 338 337 332 329 323 319 322 322 322 323 328 325 330 333 334 336 338 338 337 337 339 334 336 337 337 337 334 333 331 331 332 332 332 332 332 333 333 334 335 336 336 338 340 342 346 348 350 352 353
349 351 350 351 350 347 347 346 348 348 348 348 347 347 348 347 346 345 344 344 345 343 343 343 343 342 341 341 341 341 342 343 343 342 341 340 339 338 336 331 329 322 320 319 321 321 325 325 324 331 334 336 337 338 338 339 337 336 337 338 337 337 334 331 331 331 332 332 331 331 331 332 333 333 334 335 335 336 338 339 341 344 346 347 350
349 349 350 350 350 349 348 348 347 347 346 346 347 347 348 346 346 346 345 345 344 345 344 343 342 343 342 342 341 340 342 342 342 345 344 342 339 338 337 335 333 327 325 321 321 326 326 329 328 329 335 337 336 335 337 339 336 336 338 337 336 336 332 331 332 332 331 331 330 329 330 331 331 332 332 332 333 335 336 338 339 341 343 345 348
350 350 349 348 348 348 349 347 348 347 347 346 348 347 348 345 345 344 345 347 345 343 344 344 342 342 342 340 342 341 342 341 342 345 346 344 340 340 338 337 334 332 330 327 322 326 329 327 331 333 333 336 335 335 336 338 338 337 337 338 338 335 333 333 332 331 331 330 329 329 328 328 328 330 330 331 332 334 336 337 338 339 340 342 345
347 349 348 346 346 345 344 344 344 344 346 345 346 346 347 345 344 343 343 346 344 342 341 343 342 343 342 340 341 340 341 341 341 341 344 345 343 341 338 337 336 335 333 329 325 324 330 329 331 334 336 335 336 335 336 337 338 335 339 338 339 334 336 335 333 331 330 329 329 328 327 326 327 329 330 331 332 333 335 336 336 337 338 340 342
349 347 348 347 346 345 344 345 345 345 346 345 347 347 346 345 346 345 344 346 344 342 343 343 344 344 342 341 341 341 342 341 339 339 338 339 339 338 338 337 334 334 332 330 326 326 330 333 332 333 335 336 334 336 336 335 336 338 338 339 339 337 335 335 334 332 331 329 328 327 327 326 327 328 329 330 331 333 334 335 335 335 337 337 337
350 347 347 346 347 347 344 347 348 347 348 348 346 347 345 344 343 344 344 345 344 343 344 343 342 343 343 341 341 341 342 341 340 338 338 336 336 335 335 335 333 333 335 330 329 327 326 331 330 334 333 335 332 336 335 334 334 335 335 337 338 337 335 334 333 333 332 330 327 326 326 326 326 327 328 329 330 330 331 332 332 332 333 334 334
348 347 346 346 347 348 346 347 348 348 349 348 348 347 345 345 343 342 342 343 342 341 340 341 341 342 342 341 340 340 341 340 340 339 338 338 337 336 336 336 335 334 334 334 330 327 326 327 331 329 331 333 333 333 335 335 335 334 332 333 334 335 335 335 333 333 332 330 328 327 326 325 326 326 327 328 328 327 327 327 327 328 328 329 330
344 346 346 346 346 346 345 345 346 347 347 347 346 347 346 345 344 343 344 344 343 342 341 341 340 341 340 339 339 339 340 339 339 338 338 338 337 336 336 336 336 335 335 335 334 330 329 326 329 329 330 330 331 334 334 334 332 331 331 332 333 333 335 335 334 334 332 329 328 326 326 325 325 325 325 325 325 325 324 323 324 326 326 326 327
343 343 343 344 345 344 342 343 345 345 345 346 346 345 345 344 344 343 343 343 343 343 343 342 341 341 340 339 338 339 340 338 337 336 337 338 337 336 335 335 335 335 334 334 333 332 329 327 327 329 330 330 331 332 333 330 330 330 331 331 331 332 333 334 332 333 330 328 328 327 327 326 326 326 325 325 325 325 325 324 324 324 324 324 325
340 340 342 342 342 343 343 343 345 345 346 346 346 344 343 344 344 343 342 343 342 343 343 343 342 342 341 340 340 340 339 338 336 336 337 337 337 336 336 335 335 335 334 334 333 332 329 328 327 325 329 327 328 330 332 331 328 326 327 329 331 332 332 331 331 333 333 333 333 333 329 328 328 326 325 325 325 324 324 324 323 322 322 322 320
338 337 339 341 342 342 343 342 342 344 344 344 345 345 344 344 344 343 342 343 343 343 343 342 342 342 341 341 342 341 340 340 338 337 337 337 336 336 336 336 336 335 333 332 332 330 329 327 327 327 326 328 329 327 330 331 330 329 325 324 325 328 329 329 329 332 333 333 332 330 330 329 328 327 324 324 325 325 325 325 323 322 322 320 319
336 337 338 339 340 341 342 342 343 344 345 345 345 345 345 345 344 344 344 344 343 343 343 343 342 341 341 340 340 341 342 342 341 341 339 337 337 336 336 337 336 335 333 332 331 329 328 326 325 324 326 326 327 328 329 329 327 326 327 325 322 323 325 328 329 328 330 332 331 331 330 329 329 328 325 325 326 326 325 326 327 327 325 323 321
338 338 339 339 340 340 341 342 343 344 344 344 345 345 345 345 345 344 345 344 343 342 342 340 341 342 341 340 341 341 343 341 335 334 336 334 337 336 337 338 337 335 333 331 329 328 327 326 325 326 325 324 324 325 324 324 322 322 326 326 324 325 326 325 328 330 329 329 330 329 329 331 330 331 331 331 332 331 330 329 329 330 328 323 323
340 340 340 340 339 339 340 341 343 344 343 344 338 331 333 344 346 344 343 343 342 341 340 339 338 340 340 340 341 339 334 333 331 327 322 321 322 332 336 338 337 336 332 330 328 327 326 324 324 324 323 323 323 325 324 325 326 327 325 326 322 324 325 324 325 329 329 328 326 325 327 329 328 329 330 329 331 331 330 331 330 329 327 325 325
339 340 340 338 337 338 339 339 341 341 342 342 331 326 327 329 340 343 342 342 342 341 340 339 338 337 338 342 343 342 338 333 334 328 325 322 321 319 319 322 328 336 332 329 328 328 326 325 326 325 324 324 324 326 325 325 326 325 325 325 323 323 321 320 318 325 331 328 325 324 324 329 329 327 328 329 330 330 330 330 328 328 325 324 324
340 339 338 338 338 338 337 338 338 340 341 334 325 324 325 326 329 340 340 339 339 339 339 338 339 339 338 339 341 343 342 341 341 341 335 327 323 321 320 318 318 318 321 331 331 328 328 327 325 325 326 324 324 325 324 325 325 325 326 325 324 323 322 321 321 320 327 330 325 323 321 326 329 326 326 328 330 330 329 326 325 326 325 324 324
341 337 336 336 336 337 337 338 338 339 340 331 323 322 323 323 324 330 339 340 339 338 339 339 339 340 340 340 340 342 342 336 335 338 340 340 329 322 321 321 320 318 318 318 320 331 332 330 329 327 326 326 324 325 327 326 328 325 325 323 325 324 323 321 321 323 326 329 325 321 319 323 325 324 324 327 328 330 329 326 326 326 325 324 324
341 339 337 336 337 338 338 338 339 340 341 332 322 320 320 320 322 326 337 339 340 339 339 340 340 340 340 340 340 339 341 342 340 339 339 339 339 339 337 337 337 333 321 317 316 316 321 327 328 328 329 330 325 327 328 329 327 324 323 322 323 322 322 321 324 324 326 327 323 321 319 322 325 323 322 325 327 328 328 326 324 324 324 323 323
341 340 339 339 339 339 339 339 340 340 342 327 321 319 317 317 319 323 335 338 338 340 340 341 341 341 341 341 340 339 340 342 341 339 338 338 338 336 336 335 335 335 336 334 331 330 328 325 327 329 329 329 329 329 329 329 327 326 324 324 323 323 322 324 324 325 325 327 326 324 317 321 324 322 322 323 325 325 326 323 322 322 323 322 322
342 341 340 339 339 339 340 340 339 339 340 325 320 319 317 317 319 330 336 337 337 338 339 340 341 342 342 341 340 338 338 338 334 325 328 336 336 334 333 333 333 334 334 331 326 327 332 332 330 329 329 329 319 328 327 325 324 324 322 323 323 322 321 319 318 320 320 324 325 322 319 319 323 320 321 323 323 322 325 327 323 322 321 321 322
340 339 339 339 340 339 339 340 340 340 341 331 318 316 316 317 320 333 336 337 338 338 339 340 340 341 340 339 338 337 335 335 329 322 320 323 332 331 331 331 332 331 330 333 323 318 316 313 311 313 313 313 314 313 311 311 319 320 320 318 318 320 319 316 317 318 319 321 323 324 320 318 321 321 319 321 322 321 323 324 326 323 322 321 320
340 340 340 340 341 341 339 340 339 340 340 333 319 314 314 316 322 334 337 338 338 338 335 334 335 334 334 331 329 332 333 335 325 318 318 322 326 328 329 329 328 327 328 330 330 329 315 312 313 314 314 315 314 313 313 312 312 313 321 316 320 320 318 318 315 317 318 320 322 324 320 317 320 322 319 320 320 321 322 324 326 326 324 321 320
342 343 341 341 340 342 341 341 335 337 339 334 320 316 314 314 323 334 335 336 335 335 334 333 334 334 334 330 327 327 330 330 320 316 315 320 328 330 330 328 326 326 327 329 326 326 327 326 327 326 327 322 326 328 328 318 316 318 323 322 322 320 318 317 317 317 315 318 323 327 319 319 319 320 319 316 313 317 321 322 323 326 328 330 331
Wind_Speed
5 5 4 5 5 5 4 3 3 3 3 3 3 4 4 3 3 3 3 3 4 4 3 3 3 3 4 4 4 4 4 4 3 3 3 3 3 3 6 7 9 12 12 12 12 12 11 11 11 10 13 12 11 11 10 9 12 12 12 12 13 14 13 14 13 13 13 13 13 13 12 12 12 11 11 11 11 11 10 10 10 9 9 9 8
5 5 5 5 5 5 5 4 4 2 3 4 2 4 4 4 4 4 3 3 4 4 4 4 4 4 3 5 4 4 4 4 4 3 2 3 3 3 6 7 8 9 12 14 14 12 11 9 10 11 12 11 12 11 11 11 10 10 10 13 14 14 14 14 14 14 14 14 13 13 13 13 12 12 12 12 12 12 11 11 11 10 10 10 9
5 5 4 4 4 4 4 3 3 2 3 3 3 3 4 3 3 4 4 3 4 4 5 5 4 5 4 4 5 4 4 4 4 4 3 2 2 2 2 6 7 8 10 13 13 12 11 10 9 10 10 11 12 11 11 13 13 11 11 11 13 14 15 15 16 16 16 15 15 14 14 13 14 13 13 13 13 12 12 12 11 11 11 11 10
4 4 4 4 4 5 5 4 3 4 3 3 3 2 3 4 3 3 5 4 5 5 4 4 4 4 4 4 4 4 4 4 4 3 3 3 2 2 2 1 6 7 8 10 12 11 11 10 8 8 9 11 14 15 17 17 15 13 14 14 13 14 15 17 16 16 16 15 15 15 15 14 14 14 14 14 13 13 13 13 12 12 12 11 11
4 4 5 4 5 5 5 5 4 3 2 3 4 3 2 2 1 2 3 4 5 4 3 3 4 4 4 4 4 4 4 4 4 4 3 3 3 2 3 2 1 5 8 8 9 11 12 10 11 12 13 13 12 13 12 12 13 13 12 13 14 14 13 16 18 17 16 16 15 15 15 15 15 15 14 14 14 14 13 13 13 13 13 12 12
5 5 4 5 5 6 6 2 3 5 4 3 3 3 2 2 2 3 3 4 4 4 4 4 3 3 4 4 4 4 4 5 5 4 3 4 2 3 3 3 1 1 1 5 7 7 10 12 11 9 7 10 10 11 12 12 12 13 14 16 16 15 14 16 16 18 17 16 15 15 16 16 16 16 15 15 14 14 14 14 14 13 13 13 13
5 5 4 5 5 6 2 1 4 4 3 2 2 3 4 3 2 2 3 3 3 3 4 4 4 5 4 4 4 4 5 5 4 4 4 3 3 4 3 3 2 2 1 1 4 7 7 9 9 7 10 12 11 9 9 10 10 14 16 18 18 16 17 17 16 16 17 17 15 16 15 15 17 18 16 16 15 15 15 15 14 14 13 13 13
5 5 5 5 5 5 3 2 2 3 3 3 3 3 3 3 3 3 3 3 3 3 3 4 4 4 4 4 4 4 4 4 4 4 3 3 3 3 3 2 2 1 1 1 2 1 1 4 9 9 10 11 9 9 9 9 10 15 19 21 18 16 17 18 17 16 15 17 17 18 17 17 17 15 16 17 16 15 15 15 14 14 14 14 14
5 5 4 5 4 4 3 3 3 3 3 3 2 3 3 3 2 2 3 4 4 5 4 4 5 5 4 5 4 4 4 3 3 3 3 4 4 3 3 2 1 1 1 1 1 1 3 3 5 10 12 12 12 12 10 11 16 20 22 20 19 17 17 18 18 18 17 16 18 20 18 17 17 17 18 18 17 16 15 15 15 15 14 14 14
5 5 4 4 4 3 2 1 2 2 3 3 2 2 2 2 4 3 4 4 4 5 5 5 5 5 5 5 5 3 3 3 3 3 3 3 2 2 2 2 2 1 1 1 1 1 1 3 5 6 7 10 11 11 12 16 18 19 19 17 17 18 19 18 19 19 19 18 16 17 19 19 18 17 17 17 17 17 16 15 15 15 15 14 14
5 4 4 4 3 2 2 1 1 3 3 3 1 1 1 2 4 4 3 3 4 4 5 5 5 5 5 5 4 3 2 1 0 0 1 2 2 1 0 1 1 1 1 0 0 0 1 1 1 1 3 7 10 12 14 14 15 16 16 16 18 18 18 19 20 19 18 19 16 15 16 18 17 18 18 17 18 16 16 16 16 16 16 15 14
4 4 4 3 3 2 2 2 2 3 2 1 2 2 2 3 4 4 4 2 2 3 3 4 5 6 5 4 2 1 2 3 2 2 1 1 2 1 2 3 2 3 3 3 2 2 2 1 0 1 1 4 6 9 13 14 15 15 16 16 17 19 19 19 19 18 17 17 17 16 16 18 19 19 19 18 16 16 16 16 16 16 16 16 15
4 4 3 3 3 3 3 4 3 2 1 1 1 2 2 3 3 2 4 3 2 2 3 4 5 4 2 2 1 2 4 4 5 3 3 2 2 2 3 3 4 4 4 3 3 2 2 2 1 0 1 1 3 6 7 8 11 13 14 16 17 18 19 19 18 15 15 16 17 17 15 16 17 18 19 18 17 16 16 16 16 17 17 17 16
3 3 4 4 4 4 4 4 3 2 1 0 0 1 2 3 3 2 1 3 2 3 3 4 2 5 5 4 2 3 3 4 4 4 4 3 3 4 3 4 4 4 3 2 3 3 3 3 2 1 1 1 2 2 2 3 5 6 9 12 14 16 18 16 12 13 15 15 16 17 17 15 17 18 18 19 18 17 16 17 17 17 17 17 17
4 5 5 5 5 5 4 3 3 2 2 2 1 1 1 2 2 2 2 1 1 1 3 4 4 5 3 3 2 1 4 3 2 3 3 3 3 5 5 5 6 4 3 3 3 3 3 3 3 2 2 2 2 2 2 3 5 8 8 9 10 12 13 13 12 14 17 18 20 17 19 15 18 19 18 19 18 18 18 17 17 17 17 17 17
6 7 6 5 5 5 3 3 3 2 1 0 0 0 1 1 1 1 1 2 1 1 2 4 3 4 2 3 3 2 1 3 5 1 1 3 3 5 5 5 5 5 4 5 4 4 4 3 4 3 2 3 2 2 2 3 6 7 7 8 9 9 10 9 7 12 15 16 15 17 16 21 21 22 22 20 18 18 19 19 18 18 18 18 18
6 7 5 5 5 4 3 3 3 2 1 0 0 1 1 0 0 0 1 2 1 1 1 2 3 2 2 3 1 0 3 4 6 3 0 1 3 4 5 6 5 5 4 5 4 4 4 5 5 4 4 4 4 3 3 4 4 5 5 6 11 11 10 10 10 11 10 11 15 17 17 19 22 23 21 21 19 18 18 19 19 19 19 18 18
5 5 5 4 4 4 4 4 2 2 2 1 0 1 1 2 1 1 2 1 1 1 0 1 2 2 2 2 1 2 3 5 4 1 3 2 3 2 5 6 5 5 5 5 5 5 4 4 5 5 5 5 5 5 5 5 5 4 5 7 11 11 10 10 10 11 10 9 10 13 17 19 19 20 23 23 21 20 18 17 19 20 20 20 19
6 5 5 4 5 4 4 4 3 2 2 2 1 1 1 2 2 3 1 1 2 1 0 1 1 1 1 1 2 1 2 3 3 4 3 1 1 2 5 6 5 5 6 6 5 5 5 4 5 5 5 5 5 5 5 5 6 6 7 11 12 12 12 12 12 12 12 10 10 11 12 16 17 19 21 21 23 23 19 19 18 18 19 20 20
6 5 5 5 4 4 4 4 4 3 2 2 2 2 2 2 3 2 2 2 2 1 0 1 2 0 1 1 1 1 2 2 2 2 3 5 1 3 4 5 3 5 6 6 6 5 5 5 5 5 4 5 5 5 5 5 6 6 6 12 12 12 12 12 12 12 13 13 13 11 12 13 15 17 18 21 21 21 21 20 19 17 18 19 21
4 5 5 5 5 4 5 5 4 4 3 3 3 3 4 4 4 4 4 3 2 1 1 1 1 0 1 1 1 1 1 1 1 1 2 3 4 3 3 3 2 4 4 4 4 4 4 4 3 3 3 4 4 5 5 5 5 5 7 11 11 12 12 12 12 12 13 14 14 14 14 14 14 14 17 18 20 21 21 21 21 21 20 20 22
4 4 5 5 5 5 5 6 6 5 4 4 4 4 4 4 4 4 3 3 2 2 2 1 1 1 2 1 1 1 1 1 1 1 2 3 4 4 4 4 2 2 2 4 3 3 3 3 3 4 4 4 4 5 6 6 5 5 8 11 11 11 12 12 13 13 13 14 14 14 14 15 15 15 15 16 19 20 22 22 22 22 23 23 23
6 5 6 6 5 5 6 6 6 5 4 4 4 5 5 5 4 3 4 4 3 3 3 2 2 3 3 2 2 1 2 2 1 1 2 2 4 3 2 3 4 3 1 3 2 1 1 1 2 2 2 3 3 4 6 6 4 7 11 9 10 10 12 12 13 13 13 13 14 14 15 15 15 16 17 16 16 17 20 21 22 22 23 23 23
5 5 6 6 5 5 6 6 6 5 5 4 4 4 4 4 4 3 3 3 3 3 3 3 4 3 3 3 3 2 2 2 2 2 2 3 3 5 4 2 2 2 2 3 2 1 1 1 1 2 1 2 2 4 5 5 5 7 10 10 9 9 11 12 13 13 13 14 14 15 15 16 16 16 17 18 18 17 17 18 20 21 22 22 22
6 6 7 7 6 5 6 6 5 5 5 5 5 5 3 4 4 4 3 4 3 3 3 4 4 4 3 3 3 3 3 2 2 3 3 3 4 5 5 2 3 3 1 3 1 3 2 2 0 1 1 0 1 2 4 5 6 7 11 9 10 9 9 11 12 13 13 14 14 15 16 16 16 16 16 17 18 19 19 19 18 20 21 21 21
8 8 7 8 6 6 6 6 6 5 5 5 5 5 5 4 4 4 4 3 3 4 4 4 4 4 3 3 4 4 4 3 3 3 3 4 4 5 6 5 4 5 2 2 1 2 2 2 1 0 0 1 1 2 3 5 5 8 12 10 7 7 9 10 11 12 14 15 15 15 16 16 16 16 17 17 18 19 19 19 19 19 20 21 21
7 7 7 7 7 6 6 6 5 5 5 5 5 5 5 4 4 4 4 3 3 3 4 4 4 5 5 4 3 4 4 3 4 4 4 4 5 5 5 7 5 4 4 2 3 5 5 3 2 2 1 1 1 2 4 5 5 6 10 7 7 8 7 9 11 13 14 15 15 15 16 16 16 17 17 17 17 18 19 20 20 21 19 19 18
6 6 7 7 6 6 6 6 6 6 6 6 5 5 5 4 4 4 5 3 3 4 4 4 5 5 5 4 4 5 4 4 4 4 4 4 5 5 5 5 6 7 5 6 5 5 3 3 3 3 2 2 2 3 4 5 4 6 8 6 6 7 7 7 12 13 13 13 14 14 15 16 16 16 17 17 17 17 18 19 20 19 19 18 18
6 6 6 6 6 7 7 7 6 6 6 6 5 5 4 4 4 4 5 4 4 5 4 4 5 5 5 6 5 5 5 4 5 5 4 5 5 5 5 6 6 7 6 6 6 7 5 4 7 2 3 3 3 4 4 5 5 6 6 6 6 7 8 10 12 12 12 12 13 14 14 15 15 15 16 17 16 17 17 18 19 19 18 18 18
6 6 6 7 7 7 7 6 6 6 6 6 5 4 4 4 4 4 5 4 5 5 5 5 6 5 6 6 6 6 5 5 5 5 5 5 6 6 6 7 6 7 8 9 10 7 9 7 6 6 3 4 4 5 5 5 4 5 6 6 7 7 9 13 12 12 12 12 12 13 14 14 14 14 15 15 15 15 16 17 18 19 19 18 19
6 7 7 8 8 7 7 7 6 6 6 6 5 4 4 4 4 4 4 4 5 6 5 5 6 6 6 7 6 6 6 6 6 4 4 5 6 7 7 7 7 8 9 9 10 8 5 10 9 8 8 7 6 6 6 6 5 5 6 6 7 8 12 11 11 11 11 12 12 13 13 14 15 15 15 15 15 15 16 16 16 17 18 19 20
8 8 8 8 8 8 8 7 7 7 6 6 5 5 4 5 4 5 5 5 5 6 6 5 5 6 8 8 8 7 6 6 6 6 5 5 6 7 8 8 8 9 9 8 10 11 7 11 11 10 9 8 7 7 7 7 5 6 6 6 7 9 8 7 10 10 10 11 12 13 13 13 15 16 16 16 16 15 16 17 16 16 17 18 19
8 8 8 8 8 7 7 7 7 6 6 6 5 5 5 5 5 5 5 5 6 6 6 7 6 7 8 9 9 9 7 7 6 6 6 6 7 7 8 8 9 8 8 9 11 12 10 8 9 10 10 10 9 6 8 9 9 8 6 7 6 7 7 7 8 11 10 10 11 12 14 14 14 16 16 17 16 16 16 17 17 16 17 18 18
7 8 7 7 6 6 7 7 7 7 7 7 6 5 6 6 7 5 6 6 7 7 6 7 7 6 7 9 10 9 8 8 7 7 7 6 6 7 7 8 9 9 8 9 11 11 13 10 9 10 11 11 13 9 8 10 11 10 11 9 7 7 6 7 8 8 10 10 11 12 14 15 15 16 17 17 17 17 17 17 17 17 18 18 18
6 6 7 7 6 6 7 6 6 6 7 6 6 6 6 7 7 8 7 8 8 8 8 8 8 7 8 8 9 9 7 7 7 7 6 6 6 6 8 7 8 9 8 8 9 12 13 12 10 10 10 10 11 11 11 10 10 10 11 9 8 7 6 7 8 8 10 11 12 13 14 15 16 16 16 17 17 17 17 17 16 17 17 18 18
6 6 6 6 6 7 7 7 7 7 7 6 6 6 7 7 8 9 9 9 8 9 9 9 8 7 7 8 8 8 8 8 7 6 5 5 5 5 7 7 8 9 8 8 9 9 10 12 11 10 9 11 11 11 10 10 11 11 9 9 10 11 9 8 8 8 9 11 13 15 15 15 16 16 16 16 16 16 16 16 16 16 17 17 18
6 6 6 6 6 7 8 9 8 7 8 7 7 7 7 7 8 8 9 9 9 9 9 9 8 8 8 8 8 8 7 8 7 6 5 6 5 5 6 6 7 7 7 7 8 9 9 11 13 11 10 10 10 11 10 11 11 10 9 9 10 11 11 10 8 8 12 14 16 16 15 14 15 16 16 15 15 16 16 17 17 17 17 17 18
7 7 7 6 7 8 8 8 8 7 7 7 7 8 8 8 7 8 8 9 9 9 9 9 8 8 8 8 8 8 8 8 8 7 6 6 5 6 7 7 7 7 8 8 8 9 9 9 11 12 10 10 10 10 10 10 10 11 11 10 10 10 11 12 11 9 8 7 7 7 9 11 12 13 14 15 16 17 17 18 18 18 17 18 18
8 8 8 8 7 7 7 6 7 7 7 7 7 7 8 8 8 8 9 9 8 8 8 9 8 8 8 8 8 8 8 8 9 9 7 6 5 7 7 7 7 7 8 8 8 9 9 9 10 10 11 10 9 11 10 9 9 9 11 11 11 10 10 10 12 11 10 11 12 13 13 13 15 16 16 16 17 18 18 18 18 19 18 18 18
9 9 9 9 8 7 7 7 7 6 7 7 8 8 8 8 8 8 8 7 7 7 7 7 8 8 9 9 9 8 8 9 9 8 8 7 6 7 6 6 6 7 8 8 8 8 8 9 10 10 10 10 10 10 9 10 10 10 9 10 11 12 12 12 12 13 12 12 14 12 9 12 13 14 16 16 16 16 17 17 18 19 20 19 19
7 9 8 8 6 7 7 7 8 7 7 7 7 7 7 8 8 8 7 7 7 7 7 8 8 8 8 8 8 8 8 9 9 7 7 5 5 6 6 6 6 7 8 8 8 8 8 9 9 9 10 10 10 10 10 10 11 12 11 11 12 12 12 12 11 12 13 13 13 13 12 11 12 11 11 11 11 14 14 16 16 19 20 20 20
8 7 7 6 7 8 8 8 8 7 6 6 8 12 10 7 8 6 6 6 7 7 7 8 9 8 8 8 8 9 9 9 9 11 12 12 11 9 7 6 7 7 8 9 9 8 9 10 10 10 10 11 11 11 11 11 11 11 11 10 12 11 11 13 11 9 11 12 13 14 13 12 12 12 11 12 11 12 12 12 12 14 15 16 15
8 7 7 8 9 9 9 8 8 7 7 7 11 12 14 14 8 7 6 6 7 7 8 8 9 9 8 8 8 8 9 10 11 14 13 13 13 14 14 12 10 9 9 10 10 10 10 10 10 10 10 12 12 12 11 11 11 11 11 10 11 12 12 14 13 9 8 12 12 14 16 13 13 13 12 12 12 12 12 12 15 16 17 18 19
7 6 8 8 7 7 7 8 9 8 8 9 12 13 13 14 11 7 6 6 6 7 8 9 8 8 8 8 7 6 7 9 8 8 11 13 14 14 14 14 14 13 11 10 10 11 11 10 11 11 11 12 13 11 11 11 12 12 12 12 12 13 14 13 13 13 9 10 13 14 18 13 12 13 15 13 12 13 14 16 18 19 20 21 21
7 7 7 7 8 7 7 8 9 9 8 9 13 13 14 13 13 10 6 7 8 9 9 9 9 8 8 8 7 6 6 10 9 9 8 8 10 13 13 12 12 13 13 14 13 12 11 10 10 11 12 12 13 11 11 12 11 12 12 12 11 13 13 14 14 14 12 11 13 14 18 14 13 15 17 14 13 13 14 16 18 18 20 21 21
8 8 8 10 8 8 8 8 8 8 9 9 13 14 14 13 12 10 8 8 9 9 10 9 8 9 9 9 8 7 8 7 6 7 7 8 7 7 8 8 9 11 14 14 14 15 13 11 10 11 11 11 12 11 13 12 11 11 10 12 13 14 15 15 15 16 15 13 15 15 17 15 13 14 15 15 13 14 14 18 19 19 19 20 21
9 9 8 8 7 7 9 8 8 8 8 11 13 13 12 12 13 10 8 7 8 8 8 9 10 10 9 8 9 9 8 6 4 5 6 7 7 7 8 8 8 9 8 8 8 8 8 9 10 11 11 11 12 12 11 11 12 11 12 13 15 15 15 16 15 15 15 13 15 13 16 14 12 14 15 15 14 15 14 18 19 19 20 20 21
6 5 6 7 8 8 8 7 7 9 10 12 12 12 13 13 12 7 7 7 8 8 8 9 9 8 7 7 7 7 6 6 3 4 6 6 7 8 8 8 8 8 8 6 3 5 8 8 9 10 10 10 9 9 10 10 11 12 11 11 11 12 13 13 14 14 15 14 14 15 15 15 13 16 16 14 15 16 15 16 18 19 19 19 21
7 7 8 7 7 7 8 8 9 10 10 10 12 12 12 13 7 5 6 7 7 8 8 6 6 6 5 5 5 5 6 6 7 5 7 5 7 8 7 8 7 8 8 5 8 9 8 8 9 9 11 13 15 15 15 15 12 10 10 11 12 12 12 12 14 14 15 15 15 15 16 15 14 14 17 14 16 17 17 17 17 19 19 20 21
8 8 7 6 7 8 9 10 10 11 11 10 12 12 12 10 8 7 6 6 7 6 4 5 4 5 6 6 2 7 9 8 6 8 9 7 6 7 8 8 8 8 8 6 5 5 12 11 10 12 13 13 14 16 16 16 16 11 9 11 12 11 12 13 14 14 16 17 16 14 14 14 14 12 15 14 16 15 17 16 16 16 18 19 22
7 5 5 7 8 8 9 10 10 11 11 10 10 11 10 8 7 6 6 7 6 6 3 4 6 7 6 8 10 15 12 9 7 9 10 9 7 7 6 6 7 8 7 7 8 10 9 9 8 8 9 11 10 9 9 11 13 12 11 11 11 11 11 12 13 14 15 14 12 11 13 12 14 13 14 14 13 15 12 14 15 15 15 14 14
Wind_Direction
265 268 277 286 294 295 293 293 297 308 318 313 326 330 327 335 341 331 337 325 312 305 306 293 281 272 278 274 269 274 278 279 281 283 274 275 261 240 230 229 220 209 213 221 222 225 228 229 227 222 235 234 232 240 255 259 253 243 233 227 224 224 223 219 223 225 225 226 227 231 233 236 234 233 230 234 237 237 237 237 237 235 233 233 233
262 268 279 290 294 297 293 295 305 319 319 328 352 323 322 324 325 319 311 314 300 298 296 287 283 284 279 287 282 276 270 267 268 268 274 261 256 263 218 237 232 232 216 211 214 222 228 238 232 222 223 229 233 236 237 242 255 258 263 249 229 228 230 225 224 222 226 228 230 232 234 236 241 238 236 234 235 239 241 240 240 241 239 236 237
272 286 293 293 289 286 287 292 297 316 322 321 341 325 313 317 321 319 313 308 289 290 289 285 286 283 277 276 283 282 280 278 270 252 247 254 269 273 237 223 240 236 230 207 209 211 221 221 223 227 221 223 227 221 243 243 238 238 242 254 270 259 234 228 226 224 223 224 228 231 232 233 235 239 239 238 238 236 240 242 242 242 243 241 238
270 270 268 274 278 283 287 295 308 306 312 328 319 297 302 310 301 303 307 308 292 286 290 290 286 289 282 273 279 279 280 277 277 273 270 256 260 264 271 219 211 234 242 234 218 216 214 219 215 226 228 225 222 220 209 223 233 230 226 232 227 240 260 246 228 229 228 226 226 228 229 231 232 233 235 239 239 240 240 242 244 244 243 243 242
255 258 266 267 278 284 284 287 311 314 301 313 315 307 321 302 296 281 266 267 289 292 286 275 277 283 292 286 284 282 285 287 280 272 269 262 246 261 270 277 250 203 228 246 234 215 217 230 214 212 214 221 231 235 238 236 238 242 245 245 239 239 241 259 254 232 228 228 228 230 232 231 231 230 232 233 236 240 241 243 244 244 244 244 244
256 254 257 268 275 280 286 352 320 304 301 319 317 328 297 287 279 265 275 273 273 292 299 301 306 304 289 293 287 286 290 285 289 292 284 275 282 271 263 264 276 275 223 215 245 247 225 225 229 232 240 251 243 232 234 239 243 250 246 241 243 242 240 241 246 250 239 229 228 229 231 236 234 232 229 230 232 235 239 241 243 245 245 245 245
248 254 256 264 270 275 280 255 300 286 295 318 326 296 273 264 273 265 258 268 278 281 299 307 312 306 301 305 297 300 292 287 288 290 283 284 276 274 280 283 283 280 246 275 189 217 244 226 224 220 230 243 244 247 247 244 248 247 244 240 236 233 236 237 242 240 250 240 228 228 227 228 237 237 233 231 228 231 235 238 241 243 245 246 246
251 245 252 260 268 273 267 234 272 279 294 305 281 261 264 263 248 275 305 297 299 300 305 298 295 294 297 287 284 286 285 291 292 285 296 296 282 283 281 278 286 296 301 251 270 99 191 243 214 227 232 234 246 254 256 254 251 252 243 240 238 235 238 239 238 237 236 243 239 232 225 225 227 234 243 239 234 229 230 234 238 239 242 245 247
252 248 248 260 259 267 251 252 281 273 291 286 264 252 280 305 319 309 291 295 297 304 301 299 299 302 299 295 297 295 285 287 291 308 304 285 291 290 283 264 265 255 238 251 287 298 178 215 220 219 219 222 224 232 232 233 234 238 241 236 235 231 238 242 240 241 238 237 240 239 232 228 227 225 229 237 239 236 230 230 234 236 237 240 243
258 244 242 249 256 263 276 265 261 275 261 258 272 295 324 323 311 311 305 303 298 304 307 307 308 302 301 298 296 290 296 297 293 294 287 297 298 303 314 317 296 312 299 312 314 282 276 179 219 247 241 234 232 235 231 230 231 234 242 246 244 243 242 238 239 240 242 242 244 245 239 235 231 227 228 231 233 237 236 231 231 233 235 237 238
241 231 229 235 235 235 257 250 237 230 249 268 277 293 271 292 298 300 289 292 309 305 307 309 306 302 296 290 283 287 299 277 310 72 325 339 24 14 67 63 26 84 34 323 128 57 39 3 283 230 212 216 234 231 232 234 239 244 243 244 245 244 247 245 238 236 237 244 243 250 250 242 236 232 228 228 231 232 236 238 234 231 232 234 236
206 208 216 219 217 216 200 188 203 231 245 267 299 307 332 311 294 292 290 288 294 310 320 322 308 304 306 292 280 312 124 103 77 68 80 38 62 32 64 83 73 56 56 52 41 45 46 42 344 266 261 189 220 242 239 239 243 246 247 250 250 248 250 252 248 245 242 242 244 244 249 252 243 238 234 230 227 229 231 233 235 234 233 233 234
191 187 188 187 197 176 176 189 203 211 225 274 9 339 318 304 292 300 326 325 324 335 354 331 320 317 319 309 31 100 119 107 74 78 65 58 55 59 64 75 70 64 55 44 40 27 36 35 30 2 270 266 206 217 243 247 248 248 250 254 254 255 254 252 253 254 253 249 254 250 252 259 271 257 246 238 230 230 229 231 233 231 232 233 233
182 172 182 189 179 181 186 197 186 191 189 134 195 294 289 291 304 309 43 346 344 348 7 337 345 346 340 346 15 124 122 141 57 59 62 70 74 69 53 50 48 51 48 60 61 45 42 42 30 12 1 290 285 290 268 240 241 258 267 273 273 268 266 265 270 271 268 267 260 258 254 250 246 265 260 247 241 235 230 230 231 230 229 229 231
186 181 183 189 189 187 193 191 182 172 190 191 195 251 288 340 351 339 350 56 325 339 349 9 340 344 327 289 30 348 139 155 60 38 67 73 71 62 48 42 32 48 56 51 46 39 42 40 37 32 17 346 334 324 313 324 336 330 308 300 296 297 298 299 279 262 256 254 250 251 243 238 245 243 247 249 240 239 236 230 230 231 230 230 230
190 190 190 186 188 194 186 183 173 186 218 266 222 154 46 21 5 35 358 309 23 20 14 19 8 351 356 353 352 329 133 78 348 51 133 79 74 72 60 36 43 40 51 46 40 31 36 37 38 39 33 17 354 351 330 338 334 325 334 332 333 332 330 331 297 260 257 261 259 256 250 241 240 243 243 241 237 230 231 233 230 230 231 232 232
187 191 180 172 182 192 191 182 171 171 181 245 307 23 50 37 313 279 303 315 332 9 28 22 18 17 342 325 309 241 34 5 332 118 32 18 116 68 58 44 56 48 42 41 36 41 37 45 36 40 37 30 25 16 10 358 354 352 339 355 352 341 337 326 311 298 288 271 250 243 242 242 241 239 241 248 247 238 232 229 232 231 230 231 231
184 185 183 176 177 186 189 179 177 174 206 230 303 200 198 217 187 247 227 230 303 343 339 80 17 48 6 20 355 345 336 348 330 24 327 88 101 66 68 58 66 62 49 43 44 43 39 54 43 42 39 38 34 29 21 21 10 8 359 9 352 346 339 334 322 315 311 296 284 257 242 241 240 240 243 245 249 248 244 237 230 230 230 230 230
179 179 181 178 177 179 181 189 190 199 203 220 234 241 221 230 190 220 221 187 205 247 303 22 163 85 43 13 330 334 332 328 359 318 343 99 66 49 79 69 78 65 53 45 46 53 44 43 52 44 42 43 40 32 26 20 13 6 13 6 356 354 354 349 341 331 324 314 301 293 271 254 249 244 239 237 241 246 244 243 239 232 231 231 230
176 173 178 177 179 178 184 192 196 199 211 225 237 225 217 215 221 210 203 214 207 239 253 267 299 106 48 318 329 335 341 306 307 330 321 318 14 94 97 68 100 66 62 55 46 47 41 35 49 53 53 49 41 35 28 22 14 6 12 3 360 359 358 353 344 337 331 329 323 310 296 280 263 253 246 244 246 247 247 246 243 239 235 232 232
173 171 173 177 180 189 191 197 200 195 212 226 224 218 216 211 205 204 211 195 209 207 238 245 266 270 254 205 287 291 299 268 267 260 289 307 299 354 9 62 82 71 60 59 61 60 49 48 39 47 51 46 36 32 24 18 11 3 1 355 354 353 352 348 344 338 335 331 327 324 318 307 293 276 258 249 242 239 243 243 243 242 240 237 237
167 172 173 183 189 192 198 203 203 199 208 224 218 218 215 221 218 215 201 207 193 201 222 218 229 226 236 270 262 228 222 204 192 238 258 255 283 306 334 352 21 42 62 45 33 66 69 48 41 47 44 40 32 29 21 11 8 4 351 347 350 347 345 342 338 335 334 330 329 326 321 315 312 304 288 270 258 253 250 247 245 244 244 243 241
176 174 187 186 191 196 204 200 203 196 205 205 215 219 219 221 215 202 203 193 179 185 200 204 222 228 234 243 271 290 320 322 348 314 303 289 295 295 333 360 333 329 102 7 343 36 84 81 70 60 30 32 22 15 8 357 355 358 339 345 341 341 340 337 335 332 329 326 325 326 323 319 314 311 308 299 283 266 258 251 248 246 246 245 244
180 178 186 185 186 193 199 196 194 197 205 210 216 218 227 219 215 208 197 179 165 179 202 210 217 226 231 232 240 250 253 268 295 280 274 301 298 305 306 319 277 255 318 322 261 238 275 164 78 41 30 35 18 13 353 341 346 351 340 340 335 333 331 331 329 329 325 323 322 321 320 318 316 312 308 305 299 289 276 265 257 252 250 247 244
185 189 190 185 186 188 186 190 191 198 211 212 217 217 219 216 219 216 209 198 191 205 209 219 213 224 213 214 231 233 241 235 241 253 265 276 285 298 301 329 283 283 288 324 312 311 251 179 66 19 30 2 15 3 343 340 339 343 333 327 327 327 322 320 322 321 320 318 317 315 315 314 313 312 307 302 298 295 290 282 271 262 255 249 244
185 190 189 186 192 189 186 191 196 199 207 213 219 216 214 219 221 225 222 226 222 223 235 236 220 227 222 206 214 221 232 227 226 244 267 268 274 285 300 295 278 287 278 230 217 303 192 195 273 266 270 338 350 330 339 336 329 334 326 317 317 317 316 313 314 315 316 314 310 311 311 310 309 308 306 303 297 294 291 287 280 274 266 257 249
187 187 182 184 189 186 189 198 199 206 209 211 215 214 213 218 223 229 235 227 225 231 240 237 232 219 215 232 233 232 240 228 227 235 242 256 269 277 275 296 293 280 286 252 249 236 266 280 264 256 222 248 315 326 330 330 317 317 318 315 317 317 311 318 317 314 309 306 307 307 308 307 305 304 304 301 297 293 290 288 284 279 271 264 258
185 182 182 186 188 191 194 206 210 211 209 214 218 214 207 217 224 225 234 210 232 230 244 241 243 239 240 239 242 253 247 244 241 237 235 250 260 264 261 259 281 293 295 295 291 287 235 266 249 236 225 256 285 303 307 305 318 324 309 312 313 315 319 321 315 308 304 302 305 305 303 301 299 296 297 297 295 291 288 286 282 277 274 268 260
181 186 182 184 190 196 199 208 206 210 212 215 219 218 211 219 227 231 241 232 237 247 249 253 258 257 254 246 251 260 258 249 247 241 237 243 251 256 255 259 264 273 287 287 292 300 289 287 304 233 213 248 280 299 296 307 321 320 315 307 306 303 319 316 306 301 299 300 300 300 299 297 295 293 293 293 292 288 285 284 282 280 275 270 262
186 183 186 187 192 194 201 205 208 209 216 220 220 223 220 230 236 246 254 259 257 256 258 261 265 265 263 261 256 260 259 256 251 241 236 241 248 249 250 253 249 260 277 287 294 296 297 292 285 294 253 257 285 292 296 295 290 298 310 301 299 301 308 297 293 293 295 295 294 294 295 296 295 293 293 292 290 284 281 278 277 276 274 269 263
185 183 187 194 196 196 203 208 205 211 216 226 224 229 226 242 243 252 250 249 256 262 261 259 264 263 264 264 259 260 262 264 264 243 231 239 252 254 254 251 249 250 265 279 287 293 282 288 293 293 297 291 284 287 286 290 279 283 295 293 290 296 293 290 282 283 285 287 291 291 292 294 294 294 294 292 290 287 281 276 274 273 272 268 264
192 186 191 198 199 203 207 214 215 217 221 226 228 230 232 243 250 255 255 244 253 260 267 264 265 263 263 263 261 261 260 261 264 262 248 240 247 256 263 256 251 246 259 269 276 286 284 285 288 295 291 291 287 280 282 287 279 243 281 285 285 285 285 292 287 277 275 280 284 291 292 291 292 293 293 293 291 287 283 279 275 270 269 267 263
190 189 194 199 199 202 212 215 218 219 222 228 221 225 231 240 240 249 255 245 249 257 259 266 261 259 262 263 265 265 264 265 270 274 273 270 268 269 269 267 265 261 259 263 271 282 284 284 289 294 301 297 289 272 279 297 299 305 289 282 280 282 285 286 292 286 275 275 281 287 291 291 290 290 291 291 290 285 283 279 277 272 267 265 262
190 193 195 198 199 199 214 215 215 220 225 227 228 221 229 235 242 239 242 241 244 250 253 257 259 256 259 265 267 268 267 270 273 273 275 275 271 270 267 266 270 271 260 264 271 280 291 294 283 291 296 300 298 295 290 300 303 306 304 297 285 274 275 282 288 292 284 279 280 281 286 290 290 289 289 289 289 287 284 282 279 274 268 264 260
188 197 195 198 191 196 210 215 215 220 222 227 227 224 229 232 240 243 241 241 243 248 249 250 252 254 258 262 268 271 271 268 267 269 269 265 265 264 266 267 269 272 270 259 271 281 289 293 296 294 297 301 298 302 303 301 302 301 301 294 285 282 272 272 279 286 282 276 275 277 281 285 287 286 285 286 287 286 284 280 277 274 270 265 260
185 192 197 197 195 196 207 213 215 218 220 222 225 224 227 233 236 240 242 239 239 240 243 247 253 250 256 264 267 268 267 267 268 267 261 257 256 261 265 266 264 269 273 266 261 275 286 293 296 297 299 299 297 299 301 299 301 305 302 297 289 285 276 274 272 274 277 272 272 274 275 276 277 279 280 279 281 282 282 279 276 273 269 264 259
190 186 199 199 197 200 207 211 211 212 219 222 224 227 225 227 234 240 244 244 240 239 238 241 242 248 253 257 266 267 264 263 264 260 254 245 251 259 266 270 267 269 270 269 270 270 279 288 296 299 300 293 292 292 296 300 303 303 296 292 297 292 286 279 276 268 264 257 258 260 264 266 269 271 272 274 276 277 278 278 276 274 269 264 259
197 201 200 198 202 207 208 208 208 209 212 219 223 227 229 227 228 236 241 241 243 241 240 239 243 244 248 253 257 259 260 260 265 264 255 247 252 256 260 264 268 269 269 270 270 274 279 284 292 298 297 296 296 292 296 298 301 305 305 301 299 295 292 295 293 291 288 281 285 277 275 270 270 271 275 276 276 274 273 274 274 272 269 264 257
196 205 209 207 205 211 210 210 217 213 212 219 223 226 228 228 228 232 236 236 237 238 239 240 242 244 248 251 252 251 253 253 258 259 258 254 253 257 255 260 265 267 272 274 275 277 281 286 289 289 296 294 291 295 298 300 294 288 297 300 300 302 299 297 299 298 296 290 279 261 259 269 277 278 277 273 272 270 268 269 270 269 265 261 256
208 208 211 208 210 211 212 214 217 216 219 224 226 228 229 228 228 228 228 230 233 235 237 240 243 248 250 251 251 246 243 247 249 253 251 255 259 259 258 252 253 260 270 276 280 282 284 285 289 295 297 298 297 292 295 296 293 293 297 302 301 302 302 301 299 301 299 294 296 295 272 260 259 258 254 256 258 260 261 263 264 264 262 258 253
209 210 209 207 200 209 213 216 221 220 223 226 224 222 225 225 224 226 222 227 235 242 245 248 245 243 246 247 246 245 237 236 239 249 260 261 256 258 258 244 243 252 265 275 276 280 281 282 283 284 289 291 295 297 295 296 297 298 303 301 296 296 298 298 297 298 298 295 294 295 295 298 297 290 291 292 287 285 278 267 268 263 260 256 251
210 203 201 198 210 215 216 217 218 220 220 223 216 214 220 222 212 216 220 227 234 240 245 248 249 243 242 245 244 238 237 237 237 236 238 240 237 247 256 252 248 247 260 269 273 273 278 282 282 287 288 288 294 295 297 293 292 296 293 291 293 296 297 296 290 279 294 297 298 295 296 298 293 287 283 285 287 284 290 287 288 287 285 282 272
203 190 193 202 209 210 212 215 215 218 222 220 211 210 216 225 227 220 219 222 224 232 237 242 248 250 245 235 242 230 227 230 234 233 236 231 230 235 242 247 251 252 259 263 267 272 276 277 280 280 283 288 291 297 295 296 295 296 297 296 295 296 298 299 298 295 283 296 294 294 294 297 295 287 283 279 281 282 283 280 277 274 270 266 263
200 191 200 208 206 205 209 214 222 225 227 215 205 208 214 217 217 223 223 224 227 231 236 237 241 246 248 247 240 235 235 238 244 235 226 226 230 234 236 239 240 240 243 251 261 268 269 271 273 277 283 287 294 295 292 296 299 300 297 297 294 294 295 294 293 293 297 293 292 291 290 292 291 289 289 280 276 276 275 276 270 265 264 263 262
190 193 200 201 209 207 214 219 227 229 235 202 202 209 213 215 216 222 234 230 233 238 238 236 241 242 246 247 245 235 240 223 230 242 253 246 220 225 236 239 242 235 231 233 241 252 266 265 267 274 278 287 290 288 293 298 303 295 297 295 292 290 290 290 290 293 295 297 291 284 286 291 295 293 290 282 279 278 278 272 266 258 258 259 258
199 206 204 210 212 210 215 225 231 235 235 210 203 209 213 216 219 214 238 237 239 243 243 242 240 242 243 248 248 246 247 234 225 231 242 245 253 238 231 235 242 230 216 220 227 235 242 253 258 263 270 280 283 290 294 296 294 291 292 289 292 290 288 286 291 290 289 290 283 286 283 285 292 292 287 284 283 280 278 277 271 263 257 256 255
203 207 209 211 212 214 222 224 232 238 237 220 211 212 215 220 225 219 238 239 244 247 247 248 246 245 245 246 247 250 257 251 232 231 246 251 250 256 259 262 259 266 265 243 217 221 227 225 239 249 263 269 277 282 287 290 289 289 289 289 288 286 287 287 282 278 281 277 276 272 277 285 296 291 286 289 289 285 283 282 274 266 257 251 251
209 212 217 221 224 226 228 228 235 244 245 219 210 212 218 223 225 227 231 235 241 243 247 246 246 246 248 250 253 259 263 265 277 200 243 263 261 265 263 263 269 270 267 253 251 292 286 280 266 272 280 300 324 302 290 288 290 289 290 287 284 280 280 279 283 290 287 291 287 285 282 284 297 291 291 292 291 287 287 284 279 271 259 250 247
213 217 223 220 224 232 233 226 228 242 250 221 200 212 220 227 218 231 230 233 237 241 245 269 274 261 243 237 227 250 255 248 248 209 198 222 256 261 263 267 271 277 276 276 179 215 239 247 260 270 275 273 271 269 265 260 259 271 285 286 281 282 284 286 286 288 288 293 290 286 286 289 293 287 289 293 291 289 286 282 281 275 265 252 244
212 220 221 226 230 233 233 234 229 234 243 232 203 206 215 218 204 225 235 240 247 248 241 240 236 234 234 179 49 277 247 241 204 177 176 185 234 245 255 265 275 279 285 286 281 233 197 212 229 243 248 256 256 257 257 256 253 244 257 264 281 292 289 290 290 291 294 291 288 289 283 288 286 282 287 288 287 278 284 282 281 279 268 255 241
220 219 219 232 237 232 230 236 237 240 253 253 216 216 210 205 191 229 235 242 246 240 210 241 228 230 218 175 192 233 233 235 179 174 178 194 231 245 255 272 276 282 286 297 291 293 293 290 280 266 255 244 251 260 266 245 233 227 246 257 277 283 286 290 291 294 292 286 287 294 284 289 288 286 292 299 288 279 273 280 278 276 274 271 257